START_TIME,STEP,MOV.,P1,t_acc.,E44,t_acc.,A3,t_acc.,P10,t_acc.
1980-11-14 03:00:11.800 ,4,0,0.,1.2,0.,1.2,0.,1.2,0.,1.2
1980-11-14 03:00:13.000 ,4,0,1.,1.2,0.,1.2,0.,1.2,0.,1.2
1980-11-14 03:00:14.200 ,4,0,0.,1.2,0.,1.2,0.,1.2,0.,1.2
1980-11-14 03:00:15.400 ,4,0,0.,1.2,0.,1.2,0.,1.2,0.,1.2
1980-11-14 03:00:16.600 ,4,0,0.,1.2,0.,1.2,0.,1.2,0.,1.2
1980-11-14 03:00:17.800 ,4,0,0.,1.2,0.,1.2,0.,1.2,0.,1.2
1980-11-14 03:00:19.000 ,4,0,0.,1.2,0.,1.2,0.,1.2,0.,1.2
1980-11-14 03:00:20.200 ,4,0,0.,1.2,0.,1.2,0.,1.2,1.,1.2
1980-11-14 03:00:21.400 ,4,0,0.,1.2,0.,1.2,0.,1.2,0.,1.2
1980-11-14 03:00:22.600 ,4,0,0.,1.2,0.,1.2,0.,1.2,0.,1.2
1980-11-14 03:00:23.800 ,4,0,0.,1.2,0.,1.2,0.,1.2,0.,1.2
1980-11-14 03:00:25.000 ,4,0,1.,1.2,0.,1.2,0.,1.2,0.,1.2
1980-11-14 03:00:26.200 ,4,0,0.,1.2,0.,1.2,0.,1.2,0.,1.2
1980-11-14 03:00:27.400 ,4,0,0.,1.2,0.,1.2,0.,1.2,0.,1.2
1980-11-14 03:00:28.600 ,4,0,0.,1.2,0.,1.2,0.,1.2,0.,1.2
1980-11-14 03:00:29.800 ,4,0,0.,1.2,0.,1.2,0.,1.2,0.,1.2
1980-11-14 03:00:31.000 ,4,0,0.,1.2,0.,1.2,0.,1.2,0.,1.2
1980-11-14 03:00:32.200 ,4,0,1.,1.2,0.,1.2,0.,1.2,0.,1.2
1980-11-14 03:00:33.400 ,4,0,0.,1.2,0.,1.2,0.,1.2,0.,1.2
1980-11-14 03:00:34.600 ,4,0,0.,1.2,0.,1.2,0.,1.2,0.,1.2
1980-11-14 03:00:35.800 ,5,0,0.,1.2,0.,1.2,0.,1.2,0.,1.2
1980-11-14 03:00:37.000 ,5,0,1.,1.2,0.,1.2,0.,1.2,0.,1.2
1980-11-14 03:00:38.200 ,5,0,1.,1.2,0.,1.2,0.,1.2,0.,1.2
1980-11-14 03:00:39.400 ,5,0,0.,1.2,0.,1.2,0.,1.2,0.,1.2
1980-11-14 03:00:40.600 ,5,0,0.,1.2,0.,1.2,0.,1.2,0.,1.2
1980-11-14 03:00:41.800 ,5,0,1.,1.2,0.,1.2,0.,1.2,0.,1.2
1980-11-14 03:00:43.000 ,5,0,0.,1.2,0.,1.2,0.,1.2,0.,1.2
1980-11-14 03:00:44.200 ,5,0,0.,1.2,0.,1.2,0.,1.2,0.,1.2
1980-11-14 03:00:45.400 ,5,0,0.,1.2,0.,1.2,0.,1.2,0.,1.2
1980-11-14 03:00:46.600 ,5,0,0.,1.2,0.,1.2,0.,1.2,0.,1.2
1980-11-14 03:00:47.800 ,5,0,0.,1.2,0.,1.2,0.,1.2,0.,1.2
1980-11-14 03:00:49.000 ,5,0,0.,1.2,0.,1.2,0.,1.2,0.,1.2
1980-11-14 03:00:50.200 ,5,0,0.,1.2,0.,1.2,0.,1.2,0.,1.2
1980-11-14 03:00:51.400 ,5,0,0.,1.2,0.,1.2,0.,1.2,0.,1.2
1980-11-14 03:00:52.600 ,5,0,0.,1.2,0.,1.2,0.,1.2,0.,1.2
1980-11-14 03:00:53.800 ,5,0,0.,1.2,0.,1.2,0.,1.2,1.,1.2
1980-11-14 03:00:55.000 ,5,0,0.,1.2,0.,1.2,0.,1.2,0.,1.2
1980-11-14 03:00:56.200 ,5,0,0.,1.2,0.,1.2,0.,1.2,0.,1.2
1980-11-14 03:00:57.400 ,5,0,0.,1.2,0.,1.2,0.,1.2,0.,1.2
1980-11-14 03:00:58.600 ,5,0,0.,1.2,0.,1.2,0.,1.2,0.,1.2
1980-11-14 03:00:59.800 ,5,0,0.,1.2,0.,1.2,0.,1.2,0.,1.2
1980-11-14 03:01:01.000 ,5,0,0.,1.2,0.,1.2,0.,1.2,0.,1.2
1980-11-14 03:01:02.200 ,5,0,0.,1.2,0.,1.2,0.,1.2,0.,1.2
1980-11-14 03:01:03.400 ,5,0,0.,1.2,0.,1.2,0.,1.2,0.,1.2
1980-11-14 03:01:04.600 ,5,0,0.,1.2,0.,1.2,0.,1.2,0.,1.2
1980-11-14 03:01:05.800 ,5,0,0.,1.2,0.,1.2,0.,1.2,0.,1.2
1980-11-14 03:01:07.000 ,5,0,0.,1.2,0.,1.2,0.,1.2,0.,1.2
1980-11-14 03:01:08.200 ,5,0,3.,1.2,0.,1.2,0.,1.2,0.,1.2
1980-11-14 03:01:09.400 ,5,0,0.,1.2,0.,1.2,0.,1.2,0.,1.2
1980-11-14 03:01:10.600 ,5,0,0.,1.2,0.,1.2,0.,1.2,0.,1.2
1980-11-14 03:01:11.800 ,5,0,0.,1.2,0.,1.2,0.,1.2,0.,1.2
1980-11-14 03:01:13.000 ,5,0,0.,1.2,0.,1.2,0.,1.2,0.,1.2
1980-11-14 03:01:14.200 ,5,0,0.,1.2,0.,1.2,0.,1.2,0.,1.2
1980-11-14 03:01:15.400 ,5,0,0.,1.2,0.,1.2,0.,1.2,0.,1.2
1980-11-14 03:01:16.600 ,5,0,0.,1.2,0.,1.2,0.,1.2,0.,1.2
1980-11-14 03:01:17.800 ,5,0,0.,1.2,0.,1.2,0.,1.2,0.,1.2
1980-11-14 03:01:19.000 ,5,0,0.,1.2,0.,1.2,0.,1.2,0.,1.2
1980-11-14 03:01:20.200 ,5,0,0.,1.2,0.,1.2,0.,1.2,0.,1.2
1980-11-14 03:01:21.400 ,5,0,1.,1.2,0.,1.2,0.,1.2,0.,1.2
1980-11-14 03:01:22.600 ,5,0,1.,1.2,0.,1.2,0.,1.2,1.,1.2
1980-11-14 03:01:23.800 ,6,0,0.,1.2,0.,1.2,0.,1.2,0.,1.2
1980-11-14 03:01:25.000 ,6,0,0.,1.2,0.,1.2,0.,1.2,0.,1.2
1980-11-14 03:01:26.200 ,6,0,0.,1.2,0.,1.2,0.,1.2,0.,1.2
1980-11-14 03:01:27.400 ,6,0,0.,1.2,0.,1.2,0.,1.2,0.,1.2
1980-11-14 03:01:28.600 ,6,0,0.,1.2,0.,1.2,0.,1.2,0.,1.2
1980-11-14 03:01:29.800 ,6,0,0.,1.2,0.,1.2,0.,1.2,0.,1.2
1980-11-14 03:01:31.000 ,6,0,0.,1.2,0.,1.2,0.,1.2,0.,1.2
1980-11-14 03:01:32.200 ,6,0,0.,1.2,0.,1.2,0.,1.2,0.,1.2
1980-11-14 03:01:33.400 ,6,0,0.,1.2,0.,1.2,0.,1.2,0.,1.2
1980-11-14 03:01:34.600 ,6,0,0.,1.2,0.,1.2,0.,1.2,0.,1.2
1980-11-14 03:01:35.800 ,6,0,0.,1.2,0.,1.2,0.,1.2,0.,1.2
1980-11-14 03:01:37.000 ,6,0,0.,1.2,0.,1.2,0.,1.2,0.,1.2
1980-11-14 03:01:38.200 ,6,0,0.,1.2,0.,1.2,0.,1.2,0.,1.2
1980-11-14 03:01:39.400 ,6,0,0.,1.2,0.,1.2,0.,1.2,0.,1.2
1980-11-14 03:01:40.600 ,6,0,0.,1.2,0.,1.2,0.,1.2,0.,1.2
1980-11-14 03:01:41.800 ,6,0,1.,1.2,0.,1.2,0.,1.2,0.,1.2
1980-11-14 03:01:43.000 ,6,0,0.,1.2,0.,1.2,0.,1.2,0.,1.2
1980-11-14 03:01:44.200 ,6,0,0.,1.2,0.,1.2,0.,1.2,0.,1.2
1980-11-14 03:01:45.400 ,6,0,1.,1.2,0.,1.2,0.,1.2,0.,1.2
1980-11-14 03:01:46.600 ,6,0,1.,1.2,0.,1.2,0.,1.2,0.,1.2
1980-11-14 03:01:47.800 ,6,0,1.,1.2,0.,1.2,0.,1.2,0.,1.2
1980-11-14 03:01:49.000 ,6,0,1.,1.2,0.,1.2,0.,1.2,0.,1.2
1980-11-14 03:01:50.200 ,6,0,0.,1.2,0.,1.2,0.,1.2,0.,1.2
1980-11-14 03:01:51.400 ,6,0,0.,1.2,0.,1.2,0.,1.2,0.,1.2
1980-11-14 03:01:52.600 ,6,0,0.,1.2,0.,1.2,0.,1.2,0.,1.2
1980-11-14 03:01:53.800 ,6,0,0.,1.2,0.,1.2,0.,1.2,0.,1.2
1980-11-14 03:01:55.000 ,6,0,0.,1.2,0.,1.2,0.,1.2,0.,1.2
1980-11-14 03:01:56.200 ,6,0,1.,1.2,0.,1.2,0.,1.2,0.,1.2
1980-11-14 03:01:57.400 ,6,0,0.,1.2,0.,1.2,0.,1.2,0.,1.2
1980-11-14 03:01:58.600 ,6,0,0.,1.2,0.,1.2,0.,1.2,0.,1.2
1980-11-14 03:01:59.800 ,6,0,0.,1.2,0.,1.2,0.,1.2,1.,1.2
1980-11-14 03:02:01.000 ,6,0,0.,1.2,0.,1.2,0.,1.2,0.,1.2
1980-11-14 03:02:02.200 ,6,0,0.,1.2,0.,1.2,0.,1.2,0.,1.2
1980-11-14 03:02:03.400 ,6,0,0.,1.2,0.,1.2,0.,1.2,1.,1.2
1980-11-14 03:02:04.600 ,6,0,0.,1.2,0.,1.2,0.,1.2,0.,1.2
1980-11-14 03:02:05.800 ,6,0,1.,1.2,0.,1.2,0.,1.2,0.,1.2
1980-11-14 03:02:07.000 ,6,0,0.,1.2,0.,1.2,0.,1.2,1.,1.2
1980-11-14 03:02:08.200 ,6,0,0.,1.2,0.,1.2,0.,1.2,0.,1.2
1980-11-14 03:02:09.400 ,6,0,0.,1.2,0.,1.2,0.,1.2,0.,1.2
1980-11-14 03:02:10.600 ,6,0,0.,1.2,0.,1.2,0.,1.2,0.,1.2
1980-11-14 03:02:11.800 ,7,0,0.,1.2,0.,1.2,0.,1.2,0.,1.2
1980-11-14 03:02:13.000 ,7,0,0.,1.2,0.,1.2,0.,1.2,0.,1.2
1980-11-14 03:02:14.200 ,7,0,0.,1.2,0.,1.2,0.,1.2,0.,1.2
1980-11-14 03:02:15.400 ,7,0,1.,1.2,0.,1.2,0.,1.2,0.,1.2
1980-11-14 03:02:16.600 ,7,0,0.,1.2,0.,1.2,0.,1.2,0.,1.2
1980-11-14 03:02:17.800 ,7,0,0.,1.2,0.,1.2,0.,1.2,0.,1.2
1980-11-14 03:02:19.000 ,7,0,0.,1.2,0.,1.2,2.,1.2,0.,1.2
1980-11-14 03:02:20.200 ,7,0,0.,1.2,0.,1.2,6.,1.2,0.,1.2
1980-11-14 03:02:21.400 ,7,0,0.,1.2,0.,1.2,2.,1.2,0.,1.2
1980-11-14 03:02:22.600 ,7,0,0.,1.2,0.,1.2,7.,1.2,0.,1.2
1980-11-14 03:02:23.800 ,7,0,0.,1.2,0.,1.2,6.,1.2,0.,1.2
1980-11-14 03:02:25.000 ,7,0,0.,1.2,0.,1.2,2.,1.2,0.,1.2
1980-11-14 03:02:26.200 ,7,0,0.,1.2,0.,1.2,3.,1.2,0.,1.2
1980-11-14 03:02:27.400 ,7,0,0.,1.2,0.,1.2,5.,1.2,0.,1.2
1980-11-14 03:02:28.600 ,7,0,0.,1.2,0.,1.2,4.,1.2,0.,1.2
1980-11-14 03:02:29.800 ,7,0,0.,1.2,0.,1.2,4.,1.2,0.,1.2
1980-11-14 03:02:31.000 ,7,0,0.,1.2,0.,1.2,4.,1.2,0.,1.2
1980-11-14 03:02:32.200 ,7,0,0.,1.2,0.,1.2,3.,1.2,0.,1.2
1980-11-14 03:02:33.400 ,7,0,0.,1.2,0.,1.2,5.,1.2,0.,1.2
1980-11-14 03:02:34.600 ,7,0,0.,1.2,0.,1.2,3.,1.2,0.,1.2
1980-11-14 03:02:35.800 ,7,0,0.,1.2,0.,1.2,5.,1.2,0.,1.2
1980-11-14 03:02:37.000 ,7,0,0.,1.2,0.,1.2,3.,1.2,0.,1.2
1980-11-14 03:02:38.200 ,7,0,0.,1.2,0.,1.2,1.,1.2,0.,1.2
1980-11-14 03:02:39.400 ,7,0,0.,1.2,0.,1.2,5.,1.2,0.,1.2
1980-11-14 03:02:40.600 ,7,0,0.,1.2,0.,1.2,9.,1.2,0.,1.2
1980-11-14 03:02:41.800 ,7,0,0.,1.2,0.,1.2,4.,1.2,0.,1.2
1980-11-14 03:02:43.000 ,7,0,0.,1.2,0.,1.2,5.,1.2,0.,1.2
1980-11-14 03:02:44.200 ,7,0,0.,1.2,0.,1.2,3.,1.2,0.,1.2
1980-11-14 03:02:45.400 ,7,0,0.,1.2,0.,1.2,4.,1.2,0.,1.2
1980-11-14 03:02:46.600 ,7,0,0.,1.2,0.,1.2,6.,1.2,0.,1.2
1980-11-14 03:02:47.800 ,7,0,0.,1.2,0.,1.2,7.,1.2,0.,1.2
1980-11-14 03:02:49.000 ,7,0,0.,1.2,0.,1.2,3.,1.2,0.,1.2
1980-11-14 03:02:50.200 ,7,0,0.,1.2,0.,1.2,3.,1.2,0.,1.2
1980-11-14 03:02:51.400 ,7,0,0.,1.2,0.,1.2,6.,1.2,1.,1.2
1980-11-14 03:02:52.600 ,7,0,0.,1.2,0.,1.2,8.,1.2,0.,1.2
1980-11-14 03:02:53.800 ,7,0,0.,1.2,0.,1.2,3.,1.2,0.,1.2
1980-11-14 03:02:55.000 ,7,0,0.,1.2,0.,1.2,9.,1.2,0.,1.2
1980-11-14 03:02:56.200 ,7,0,0.,1.2,0.,1.2,6.,1.2,0.,1.2
1980-11-14 03:02:57.400 ,7,0,0.,1.2,0.,1.2,4.,1.2,0.,1.2
1980-11-14 03:02:58.600 ,7,0,0.,1.2,0.,1.2,5.,1.2,0.,1.2
1980-11-14 03:02:59.800 ,7,0,0.,1.2,0.,1.2,4.,1.2,0.,1.2
1980-11-14 03:03:01.000 ,7,0,0.,1.2,0.,1.2,8.,1.2,0.,1.2
1980-11-14 03:03:02.200 ,7,0,0.,1.2,0.,1.2,3.,1.2,0.,1.2
1980-11-14 03:03:03.400 ,7,0,0.,1.2,0.,1.2,4.,1.2,0.,1.2
1980-11-14 03:03:04.600 ,7,0,0.,1.2,0.,1.2,6.,1.2,0.,1.2
1980-11-14 03:03:05.800 ,7,0,0.,1.2,0.,1.2,6.,1.2,0.,1.2
1980-11-14 03:03:07.000 ,7,0,0.,1.2,0.,1.2,2.,1.2,0.,1.2
1980-11-14 03:03:08.200 ,7,0,0.,1.2,0.,1.2,3.,1.2,0.,1.2
1980-11-14 03:03:09.400 ,7,0,0.,1.2,0.,1.2,4.,1.2,0.,1.2
1980-11-14 03:03:10.600 ,7,0,0.,1.2,0.,1.2,3.,1.2,0.,1.2
1980-11-14 03:03:11.800 ,7,0,0.,1.2,0.,1.2,7.,1.2,0.,1.2
1980-11-14 03:03:13.000 ,7,0,0.,1.2,0.,1.2,3.,1.2,0.,1.2
1980-11-14 03:03:14.200 ,7,0,0.,1.2,0.,1.2,8.,1.2,0.,1.2
1980-11-14 03:03:15.400 ,7,0,0.,1.2,0.,1.2,3.,1.2,0.,1.2
1980-11-14 03:03:16.600 ,7,0,0.,1.2,0.,1.2,5.,1.2,0.,1.2
1980-11-14 03:03:17.800 ,7,0,0.,1.2,0.,1.2,4.,1.2,0.,1.2
1980-11-14 03:03:19.000 ,7,0,0.,1.2,0.,1.2,3.,1.2,0.,1.2
1980-11-14 03:03:20.200 ,7,0,0.,1.2,0.,1.2,3.,1.2,0.,1.2
1980-11-14 03:03:21.400 ,7,0,0.,1.2,0.,1.2,7.,1.2,0.,1.2
1980-11-14 03:03:22.600 ,7,0,0.,1.2,0.,1.2,2.,1.2,0.,1.2
1980-11-14 03:03:23.800 ,7,0,0.,1.2,0.,1.2,2.,1.2,0.,1.2
1980-11-14 03:03:25.000 ,7,0,0.,1.2,0.,1.2,4.,1.2,0.,1.2
1980-11-14 03:03:26.200 ,7,0,0.,1.2,0.,1.2,6.,1.2,0.,1.2
1980-11-14 03:03:27.400 ,7,0,0.,1.2,0.,1.2,1.,1.2,0.,1.2
1980-11-14 03:03:28.600 ,7,0,0.,1.2,0.,1.2,2.,1.2,0.,1.2
1980-11-14 03:03:29.800 ,7,0,0.,1.2,0.,1.2,4.,1.2,0.,1.2
1980-11-14 03:03:31.000 ,7,0,0.,1.2,0.,1.2,7.,1.2,0.,1.2
1980-11-14 03:03:32.200 ,7,0,0.,1.2,0.,1.2,3.,1.2,0.,1.2
1980-11-14 03:03:33.400 ,7,0,0.,1.2,0.,1.2,1.,1.2,0.,1.2
1980-11-14 03:03:34.600 ,7,0,0.,1.2,0.,1.2,3.,1.2,0.,1.2
1980-11-14 03:03:35.800 ,7,0,0.,1.2,0.,1.2,3.,1.2,0.,1.2
1980-11-14 03:03:37.000 ,7,0,0.,1.2,0.,1.2,5.,1.2,0.,1.2
1980-11-14 03:03:38.200 ,7,0,0.,1.2,0.,1.2,7.,1.2,0.,1.2
1980-11-14 03:03:39.400 ,7,0,0.,1.2,0.,1.2,6.,1.2,0.,1.2
1980-11-14 03:03:40.600 ,7,0,0.,1.2,0.,1.2,3.,1.2,0.,1.2
1980-11-14 03:03:41.800 ,7,0,0.,1.2,0.,1.2,6.,1.2,0.,1.2
1980-11-14 03:03:43.000 ,7,0,0.,1.2,0.,1.2,5.,1.2,0.,1.2
1980-11-14 03:03:44.200 ,7,0,0.,1.2,0.,1.2,2.,1.2,0.,1.2
1980-11-14 03:03:45.400 ,7,0,0.,1.2,0.,1.2,5.,1.2,0.,1.2
1980-11-14 03:03:46.600 ,7,0,0.,1.2,0.,1.2,8.,1.2,0.,1.2
1980-11-14 03:03:47.800 ,6,0,0.,1.2,0.,1.2,5.,1.2,0.,1.2
1980-11-14 03:03:49.000 ,6,0,0.,1.2,0.,1.2,7.,1.2,0.,1.2
1980-11-14 03:03:50.200 ,6,0,0.,1.2,0.,1.2,5.,1.2,0.,1.2
1980-11-14 03:03:51.400 ,6,0,0.,1.2,0.,1.2,4.,1.2,0.,1.2
1980-11-14 03:03:52.600 ,6,0,0.,1.2,0.,1.2,3.,1.2,0.,1.2
1980-11-14 03:03:53.800 ,6,0,0.,1.2,0.,1.2,0.,1.2,0.,1.2
1980-11-14 03:03:55.000 ,6,0,0.,1.2,0.,1.2,0.,1.2,0.,1.2
1980-11-14 03:03:56.200 ,6,0,0.,1.2,0.,1.2,0.,1.2,0.,1.2
1980-11-14 03:03:57.400 ,6,0,0.,1.2,0.,1.2,0.,1.2,0.,1.2
1980-11-14 03:03:58.600 ,6,0,1.,1.2,0.,1.2,0.,1.2,0.,1.2
1980-11-14 03:03:59.800 ,6,0,0.,1.2,0.,1.2,0.,1.2,0.,1.2
1980-11-14 03:04:01.000 ,6,0,0.,1.2,0.,1.2,0.,1.2,0.,1.2
1980-11-14 03:04:02.200 ,6,0,0.,1.2,0.,1.2,0.,1.2,0.,1.2
1980-11-14 03:04:03.400 ,6,0,1.,1.2,0.,1.2,0.,1.2,0.,1.2
1980-11-14 03:04:04.600 ,6,0,0.,1.2,0.,1.2,0.,1.2,0.,1.2
1980-11-14 03:04:05.800 ,6,0,0.,1.2,0.,1.2,0.,1.2,0.,1.2
1980-11-14 03:04:07.000 ,6,0,0.,1.2,0.,1.2,0.,1.2,0.,1.2
1980-11-14 03:04:08.200 ,6,0,0.,1.2,0.,1.2,0.,1.2,0.,1.2
1980-11-14 03:04:09.400 ,6,0,0.,1.2,0.,1.2,0.,1.2,0.,1.2
1980-11-14 03:04:10.600 ,6,0,0.,1.2,0.,1.2,0.,1.2,0.,1.2
1980-11-14 03:04:11.800 ,0,0,0.,1.2,0.,1.2,0.,1.2,0.,1.2
1980-11-14 03:04:13.000 ,0,0,0.,1.2,0.,1.2,0.,1.2,0.,1.2
1980-11-14 03:04:14.200 ,0,0,0.,1.2,0.,1.2,0.,1.2,0.,1.2
1980-11-14 03:04:15.400 ,0,0,0.,1.2,0.,1.2,0.,1.2,0.,1.2
1980-11-14 03:04:16.600 ,0,0,0.,1.2,0.,1.2,0.,1.2,0.,1.2
1980-11-14 03:04:17.800 ,0,0,0.,1.2,0.,1.2,0.,1.2,1.,1.2
1980-11-14 03:04:19.000 ,0,0,0.,1.2,0.,1.2,0.,1.2,0.,1.2
1980-11-14 03:04:20.200 ,0,0,0.,1.2,0.,1.2,0.,1.2,0.,1.2
1980-11-14 03:04:21.400 ,0,0,0.,1.2,0.,1.2,0.,1.2,0.,1.2
1980-11-14 03:04:22.600 ,0,0,0.,1.2,0.,1.2,0.,1.2,0.,1.2
1980-11-14 03:04:23.800 ,0,0,0.,1.2,0.,1.2,0.,1.2,0.,1.2
1980-11-14 03:04:25.000 ,0,0,0.,1.2,0.,1.2,0.,1.2,0.,1.2
1980-11-14 03:04:26.200 ,0,0,0.,1.2,0.,1.2,0.,1.2,0.,1.2
1980-11-14 03:04:27.400 ,0,0,0.,1.2,0.,1.2,0.,1.2,0.,1.2
1980-11-14 03:04:28.600 ,0,0,1.,1.2,0.,1.2,0.,1.2,0.,1.2
1980-11-14 03:04:29.800 ,0,0,0.,1.2,0.,1.2,0.,1.2,0.,1.2
1980-11-14 03:04:31.000 ,0,0,0.,1.2,0.,1.2,0.,1.2,0.,1.2
1980-11-14 03:04:32.200 ,0,0,0.,1.2,0.,1.2,0.,1.2,0.,1.2
1980-11-14 03:04:33.400 ,0,0,0.,1.2,0.,1.2,0.,1.2,0.,1.2
1980-11-14 03:04:34.600 ,0,0,,0,,0,,0,,0
1980-11-14 03:06:59.800 ,0,0,1.,1.2,0.,1.2,0.,1.2,0.,1.2
1980-11-14 03:07:01.000 ,0,0,0.,1.2,0.,1.2,0.,1.2,0.,1.2
1980-11-14 03:07:02.200 ,0,0,0.,1.2,0.,1.2,0.,1.2,0.,1.2
1980-11-14 03:07:03.400 ,0,0,0.,1.2,0.,1.2,0.,1.2,0.,1.2
1980-11-14 03:07:04.600 ,0,0,0.,1.2,0.,1.2,0.,1.2,0.,1.2
1980-11-14 03:07:05.800 ,0,0,1.,1.2,0.,1.2,0.,1.2,0.,1.2
1980-11-14 03:07:07.000 ,0,0,2.,1.2,0.,1.2,0.,1.2,0.,1.2
1980-11-14 03:07:08.200 ,0,0,0.,1.2,0.,1.2,0.,1.2,0.,1.2
1980-11-14 03:07:09.400 ,0,0,0.,1.2,0.,1.2,0.,1.2,0.,1.2
1980-11-14 03:07:10.600 ,0,0,0.,1.2,0.,1.2,0.,1.2,0.,1.2
1980-11-14 03:07:11.800 ,0,0,0.,1.2,0.,1.2,0.,1.2,0.,1.2
1980-11-14 03:07:13.000 ,0,0,0.,1.2,0.,1.2,0.,1.2,0.,1.2
1980-11-14 03:07:14.200 ,0,0,0.,1.2,0.,1.2,0.,1.2,0.,1.2
1980-11-14 03:07:15.400 ,0,0,0.,1.2,0.,1.2,0.,1.2,0.,1.2
1980-11-14 03:07:16.600 ,0,0,0.,1.2,0.,1.2,0.,1.2,0.,1.2
1980-11-14 03:07:17.800 ,0,0,0.,1.2,0.,1.2,0.,1.2,0.,1.2
1980-11-14 03:07:19.000 ,0,0,1.,1.2,0.,1.2,0.,1.2,0.,1.2
1980-11-14 03:07:20.200 ,0,0,0.,1.2,0.,1.2,0.,1.2,0.,1.2
1980-11-14 03:07:21.400 ,0,0,0.,1.2,0.,1.2,0.,1.2,0.,1.2
1980-11-14 03:07:22.600 ,0,0,0.,1.2,0.,1.2,0.,1.2,0.,1.2
1980-11-14 03:07:23.800 ,0,0,0.,1.2,0.,1.2,0.,1.2,0.,1.2
1980-11-14 03:07:25.000 ,0,0,0.,1.2,0.,1.2,0.,1.2,0.,1.2
1980-11-14 03:07:26.200 ,0,0,0.,1.2,0.,1.2,0.,1.2,1.,1.2
1980-11-14 03:07:27.400 ,0,0,0.,1.2,0.,1.2,0.,1.2,0.,1.2
1980-11-14 03:07:28.600 ,0,0,0.,1.2,0.,1.2,0.,1.2,0.,1.2
1980-11-14 03:07:29.800 ,0,0,1.,1.2,0.,1.2,0.,1.2,0.,1.2
1980-11-14 03:07:31.000 ,0,0,0.,1.2,0.,1.2,0.,1.2,0.,1.2
1980-11-14 03:07:32.200 ,0,0,0.,1.2,0.,1.2,0.,1.2,0.,1.2
1980-11-14 03:07:33.400 ,0,0,2.,1.2,0.,1.2,0.,1.2,0.,1.2
1980-11-14 03:07:34.600 ,0,0,0.,1.2,0.,1.2,0.,1.2,0.,1.2
1980-11-14 03:07:35.800 ,0,0,1.,1.2,0.,1.2,0.,1.2,0.,1.2
1980-11-14 03:07:37.000 ,0,0,0.,1.2,0.,1.2,0.,1.2,0.,1.2
1980-11-14 03:07:38.200 ,0,0,0.,1.2,0.,1.2,0.,1.2,0.,1.2
1980-11-14 03:07:39.400 ,0,0,2.,1.2,0.,1.2,0.,1.2,0.,1.2
1980-11-14 03:07:40.600 ,0,0,0.,1.2,0.,1.2,0.,1.2,0.,1.2
1980-11-14 03:07:41.800 ,0,0,0.,1.2,0.,1.2,0.,1.2,0.,1.2
1980-11-14 03:07:43.000 ,0,0,0.,1.2,0.,1.2,0.,1.2,0.,1.2
1980-11-14 03:07:44.200 ,0,0,0.,1.2,0.,1.2,0.,1.2,0.,1.2
1980-11-14 03:07:45.400 ,0,0,0.,1.2,0.,1.2,0.,1.2,0.,1.2
1980-11-14 03:07:46.600 ,0,0,0.,1.2,0.,1.2,0.,1.2,0.,1.2
1980-11-14 03:07:47.800 ,1,0,0.,1.2,0.,1.2,0.,1.2,0.,1.2
1980-11-14 03:07:49.000 ,1,0,0.,1.2,0.,1.2,0.,1.2,0.,1.2
1980-11-14 03:07:50.200 ,1,0,0.,1.2,0.,1.2,0.,1.2,1.,1.2
1980-11-14 03:07:51.400 ,1,0,0.,1.2,0.,1.2,0.,1.2,0.,1.2
1980-11-14 03:07:52.600 ,1,0,0.,1.2,0.,1.2,0.,1.2,1.,1.2
1980-11-14 03:07:53.800 ,1,0,0.,1.2,0.,1.2,0.,1.2,0.,1.2
1980-11-14 03:07:55.000 ,1,0,0.,1.2,0.,1.2,0.,1.2,0.,1.2
1980-11-14 03:07:56.200 ,1,0,0.,1.2,0.,1.2,0.,1.2,0.,1.2
1980-11-14 03:07:57.400 ,1,0,1.,1.2,0.,1.2,0.,1.2,0.,1.2
1980-11-14 03:07:58.600 ,1,0,0.,1.2,0.,1.2,0.,1.2,0.,1.2
1980-11-14 03:07:59.800 ,1,0,0.,1.2,0.,1.2,0.,1.2,0.,1.2
1980-11-14 03:08:01.000 ,1,0,0.,1.2,0.,1.2,0.,1.2,0.,1.2
1980-11-14 03:08:02.200 ,1,0,0.,1.2,0.,1.2,0.,1.2,0.,1.2
1980-11-14 03:08:03.400 ,1,0,0.,1.2,0.,1.2,0.,1.2,1.,1.2
1980-11-14 03:08:04.600 ,1,0,0.,1.2,0.,1.2,0.,1.2,0.,1.2
1980-11-14 03:08:05.800 ,1,0,0.,1.2,0.,1.2,0.,1.2,0.,1.2
1980-11-14 03:08:07.000 ,1,0,1.,1.2,0.,1.2,0.,1.2,0.,1.2
1980-11-14 03:08:08.200 ,1,0,0.,1.2,0.,1.2,0.,1.2,0.,1.2
1980-11-14 03:08:09.400 ,1,0,0.,1.2,0.,1.2,0.,1.2,0.,1.2
1980-11-14 03:08:10.600 ,1,0,1.,1.2,0.,1.2,0.,1.2,0.,1.2
1980-11-14 03:08:11.800 ,1,0,0.,1.2,0.,1.2,0.,1.2,0.,1.2
1980-11-14 03:08:13.000 ,1,0,0.,1.2,0.,1.2,0.,1.2,0.,1.2
1980-11-14 03:08:14.200 ,1,0,0.,1.2,0.,1.2,0.,1.2,0.,1.2
1980-11-14 03:08:15.400 ,1,0,0.,1.2,0.,1.2,0.,1.2,0.,1.2
1980-11-14 03:08:16.600 ,1,0,0.,1.2,0.,1.2,0.,1.2,0.,1.2
1980-11-14 03:08:17.800 ,1,0,0.,1.2,0.,1.2,0.,1.2,0.,1.2
1980-11-14 03:08:19.000 ,1,0,1.,1.2,0.,1.2,0.,1.2,0.,1.2
1980-11-14 03:08:20.200 ,1,0,0.,1.2,0.,1.2,0.,1.2,0.,1.2
1980-11-14 03:08:21.400 ,1,0,1.,1.2,0.,1.2,0.,1.2,0.,1.2
1980-11-14 03:08:22.600 ,1,0,0.,1.2,0.,1.2,0.,1.2,0.,1.2
1980-11-14 03:08:23.800 ,1,0,0.,1.2,0.,1.2,0.,1.2,0.,1.2
1980-11-14 03:08:25.000 ,1,0,1.,1.2,0.,1.2,0.,1.2,0.,1.2
1980-11-14 03:08:26.200 ,1,0,0.,1.2,0.,1.2,0.,1.2,0.,1.2
1980-11-14 03:08:27.400 ,1,0,0.,1.2,0.,1.2,0.,1.2,0.,1.2
1980-11-14 03:08:28.600 ,1,0,1.,1.2,0.,1.2,0.,1.2,0.,1.2
1980-11-14 03:08:29.800 ,1,0,0.,1.2,0.,1.2,0.,1.2,0.,1.2
1980-11-14 03:08:31.000 ,1,0,0.,1.2,0.,1.2,0.,1.2,0.,1.2
1980-11-14 03:08:32.200 ,1,0,1.,1.2,0.,1.2,0.,1.2,0.,1.2
1980-11-14 03:08:33.400 ,1,0,0.,1.2,0.,1.2,0.,1.2,0.,1.2
1980-11-14 03:08:34.600 ,1,0,0.,1.2,0.,1.2,0.,1.2,0.,1.2
1980-11-14 03:08:35.800 ,0,0,1.,1.2,0.,1.2,0.,1.2,0.,1.2
1980-11-14 03:08:37.000 ,0,0,0.,1.2,0.,1.2,0.,1.2,0.,1.2
1980-11-14 03:08:38.200 ,0,0,0.,1.2,0.,1.2,0.,1.2,0.,1.2
1980-11-14 03:08:39.400 ,0,0,0.,1.2,0.,1.2,0.,1.2,0.,1.2
1980-11-14 03:08:40.600 ,0,0,0.,1.2,0.,1.2,0.,1.2,0.,1.2
1980-11-14 03:08:41.800 ,0,0,0.,1.2,0.,1.2,0.,1.2,0.,1.2
1980-11-14 03:08:43.000 ,0,0,0.,1.2,0.,1.2,0.,1.2,0.,1.2
1980-11-14 03:08:44.200 ,0,0,0.,1.2,0.,1.2,0.,1.2,0.,1.2
1980-11-14 03:08:45.400 ,0,0,2.,1.2,0.,1.2,0.,1.2,0.,1.2
1980-11-14 03:08:46.600 ,0,0,0.,1.2,0.,1.2,0.,1.2,0.,1.2
1980-11-14 03:08:47.800 ,0,0,0.,1.2,0.,1.2,0.,1.2,0.,1.2
1980-11-14 03:08:49.000 ,0,0,0.,1.2,0.,1.2,0.,1.2,0.,1.2
1980-11-14 03:08:50.200 ,0,0,0.,1.2,0.,1.2,0.,1.2,0.,1.2
1980-11-14 03:08:51.400 ,0,0,0.,1.2,0.,1.2,0.,1.2,0.,1.2
1980-11-14 03:08:52.600 ,0,0,0.,1.2,0.,1.2,0.,1.2,0.,1.2
1980-11-14 03:08:53.800 ,0,0,1.,1.2,0.,1.2,0.,1.2,0.,1.2
1980-11-14 03:08:55.000 ,0,0,0.,1.2,0.,1.2,0.,1.2,0.,1.2
1980-11-14 03:08:56.200 ,0,0,0.,1.2,0.,1.2,0.,1.2,0.,1.2
1980-11-14 03:08:57.400 ,0,0,0.,1.2,0.,1.2,0.,1.2,0.,1.2
1980-11-14 03:08:58.600 ,0,0,0.,1.2,0.,1.2,0.,1.2,0.,1.2
1980-11-14 03:08:59.800 ,0,0,0.,1.2,0.,1.2,0.,1.2,0.,1.2
1980-11-14 03:09:01.000 ,0,0,0.,1.2,0.,1.2,0.,1.2,0.,1.2
1980-11-14 03:09:02.200 ,0,0,0.,1.2,0.,1.2,0.,1.2,0.,1.2
1980-11-14 03:09:03.400 ,0,0,0.,1.2,0.,1.2,0.,1.2,0.,1.2
1980-11-14 03:09:04.600 ,0,0,0.,1.2,0.,1.2,0.,1.2,0.,1.2
1980-11-14 03:09:05.800 ,0,0,0.,1.2,0.,1.2,0.,1.2,0.,1.2
1980-11-14 03:09:07.000 ,0,0,0.,1.2,0.,1.2,0.,1.2,0.,1.2
1980-11-14 03:09:08.200 ,0,0,1.,1.2,0.,1.2,0.,1.2,0.,1.2
1980-11-14 03:09:09.400 ,0,0,0.,1.2,0.,1.2,0.,1.2,0.,1.2
1980-11-14 03:09:10.600 ,0,0,1.,1.2,0.,1.2,0.,1.2,0.,1.2
1980-11-14 03:09:11.800 ,0,0,0.,1.2,0.,1.2,0.,1.2,0.,1.2
1980-11-14 03:09:13.000 ,0,0,0.,1.2,0.,1.2,0.,1.2,0.,1.2
1980-11-14 03:09:14.200 ,0,0,2.,1.2,0.,1.2,0.,1.2,0.,1.2
1980-11-14 03:09:15.400 ,0,0,1.,1.2,0.,1.2,0.,1.2,0.,1.2
1980-11-14 03:09:16.600 ,0,0,1.,1.2,0.,1.2,0.,1.2,0.,1.2
1980-11-14 03:09:17.800 ,0,0,1.,1.2,0.,1.2,0.,1.2,0.,1.2
1980-11-14 03:09:19.000 ,0,0,1.,1.2,0.,1.2,0.,1.2,0.,1.2
1980-11-14 03:09:20.200 ,0,0,0.,1.2,0.,1.2,0.,1.2,0.,1.2
1980-11-14 03:09:21.400 ,0,0,0.,1.2,0.,1.2,0.,1.2,0.,1.2
1980-11-14 03:09:22.600 ,0,0,0.,1.2,0.,1.2,0.,1.2,0.,1.2
1980-11-14 03:09:23.800 ,0,0,0.,1.2,0.,1.2,0.,1.2,0.,1.2
1980-11-14 03:09:25.000 ,0,0,1.,1.2,0.,1.2,0.,1.2,0.,1.2
1980-11-14 03:09:26.200 ,0,0,0.,1.2,0.,1.2,0.,1.2,0.,1.2
1980-11-14 03:09:27.400 ,0,0,0.,1.2,0.,1.2,1.,1.2,1.,1.2
1980-11-14 03:09:28.600 ,0,0,0.,1.2,0.,1.2,0.,1.2,0.,1.2
1980-11-14 03:09:29.800 ,0,0,0.,1.2,0.,1.2,0.,1.2,0.,1.2
1980-11-14 03:09:31.000 ,0,0,0.,1.2,0.,1.2,0.,1.2,0.,1.2
1980-11-14 03:09:32.200 ,0,0,0.,1.2,0.,1.2,0.,1.2,0.,1.2
1980-11-14 03:09:33.400 ,0,0,0.,1.2,0.,1.2,0.,1.2,0.,1.2
1980-11-14 03:09:34.600 ,0,0,1.,1.2,0.,1.2,0.,1.2,0.,1.2
1980-11-14 03:09:35.800 ,0,0,2.,1.2,0.,1.2,0.,1.2,0.,1.2
1980-11-14 03:09:37.000 ,0,0,0.,1.2,0.,1.2,0.,1.2,0.,1.2
1980-11-14 03:09:38.200 ,0,0,1.,1.2,0.,1.2,0.,1.2,0.,1.2
1980-11-14 03:09:39.400 ,0,0,0.,1.2,0.,1.2,0.,1.2,0.,1.2
1980-11-14 03:09:40.600 ,0,0,0.,1.2,0.,1.2,0.,1.2,0.,1.2
1980-11-14 03:09:41.800 ,0,0,0.,1.2,0.,1.2,0.,1.2,0.,1.2
1980-11-14 03:09:43.000 ,0,0,0.,1.2,0.,1.2,0.,1.2,0.,1.2
1980-11-14 03:09:44.200 ,0,0,0.,1.2,0.,1.2,0.,1.2,0.,1.2
1980-11-14 03:09:45.400 ,0,0,0.,1.2,0.,1.2,0.,1.2,0.,1.2
1980-11-14 03:09:46.600 ,0,0,1.,1.2,0.,1.2,0.,1.2,0.,1.2
1980-11-14 03:09:47.800 ,0,0,0.,1.2,0.,1.2,0.,1.2,0.,1.2
1980-11-14 03:09:49.000 ,0,0,0.,1.2,0.,1.2,0.,1.2,0.,1.2
1980-11-14 03:09:50.200 ,0,0,0.,1.2,0.,1.2,0.,1.2,0.,1.2
1980-11-14 03:09:51.400 ,0,0,0.,1.2,0.,1.2,0.,1.2,0.,1.2
1980-11-14 03:09:52.600 ,0,0,0.,1.2,0.,1.2,0.,1.2,0.,1.2
1980-11-14 03:09:53.800 ,0,0,0.,1.2,0.,1.2,0.,1.2,0.,1.2
1980-11-14 03:09:55.000 ,0,0,0.,1.2,0.,1.2,0.,1.2,0.,1.2
1980-11-14 03:09:56.200 ,0,0,1.,1.2,0.,1.2,0.,1.2,0.,1.2
1980-11-14 03:09:57.400 ,0,0,0.,1.2,0.,1.2,0.,1.2,0.,1.2
1980-11-14 03:09:58.600 ,0,0,0.,1.2,0.,1.2,0.,1.2,0.,1.2
1980-11-14 03:09:59.800 ,0,0,0.,1.2,0.,1.2,0.,1.2,0.,1.2
1980-11-14 03:10:01.000 ,0,0,0.,1.2,0.,1.2,0.,1.2,0.,1.2
1980-11-14 03:10:02.200 ,0,0,0.,1.2,0.,1.2,0.,1.2,0.,1.2
1980-11-14 03:10:03.400 ,0,0,0.,1.2,0.,1.2,0.,1.2,0.,1.2
1980-11-14 03:10:04.600 ,0,0,1.,1.2,0.,1.2,0.,1.2,0.,1.2
1980-11-14 03:10:05.800 ,0,0,0.,1.2,0.,1.2,0.,1.2,0.,1.2
1980-11-14 03:10:07.000 ,0,0,1.,1.2,0.,1.2,0.,1.2,0.,1.2
1980-11-14 03:10:08.200 ,0,0,0.,1.2,0.,1.2,0.,1.2,1.,1.2
1980-11-14 03:10:09.400 ,0,0,0.,1.2,0.,1.2,0.,1.2,0.,1.2
1980-11-14 03:10:10.600 ,0,0,0.,1.2,0.,1.2,0.,1.2,0.,1.2
1980-11-14 03:10:11.800 ,1,0,0.,1.2,0.,1.2,0.,1.2,0.,1.2
1980-11-14 03:10:13.000 ,1,0,0.,1.2,0.,1.2,0.,1.2,0.,1.2
1980-11-14 03:10:14.200 ,1,0,1.,1.2,0.,1.2,0.,1.2,0.,1.2
1980-11-14 03:10:15.400 ,1,0,1.,1.2,0.,1.2,0.,1.2,0.,1.2
1980-11-14 03:10:16.600 ,1,0,0.,1.2,0.,1.2,0.,1.2,0.,1.2
1980-11-14 03:10:17.800 ,1,0,0.,1.2,0.,1.2,0.,1.2,0.,1.2
1980-11-14 03:10:19.000 ,1,0,0.,1.2,0.,1.2,0.,1.2,0.,1.2
1980-11-14 03:10:20.200 ,1,0,0.,1.2,0.,1.2,0.,1.2,0.,1.2
1980-11-14 03:10:21.400 ,1,0,0.,1.2,0.,1.2,0.,1.2,0.,1.2
1980-11-14 03:10:22.600 ,1,0,0.,1.2,0.,1.2,0.,1.2,0.,1.2
1980-11-14 03:10:23.800 ,1,0,0.,1.2,0.,1.2,0.,1.2,0.,1.2
1980-11-14 03:10:25.000 ,1,0,0.,1.2,0.,1.2,0.,1.2,0.,1.2
1980-11-14 03:10:26.200 ,1,0,0.,1.2,0.,1.2,0.,1.2,0.,1.2
1980-11-14 03:10:27.400 ,1,0,0.,1.2,0.,1.2,0.,1.2,0.,1.2
1980-11-14 03:10:28.600 ,1,0,0.,1.2,0.,1.2,0.,1.2,0.,1.2
1980-11-14 03:10:29.800 ,1,0,0.,1.2,0.,1.2,0.,1.2,0.,1.2
1980-11-14 03:10:31.000 ,1,0,1.,1.2,0.,1.2,0.,1.2,0.,1.2
1980-11-14 03:10:32.200 ,1,0,0.,1.2,0.,1.2,0.,1.2,0.,1.2
1980-11-14 03:10:33.400 ,1,0,0.,1.2,0.,1.2,0.,1.2,0.,1.2
1980-11-14 03:10:34.600 ,1,0,1.,1.2,0.,1.2,0.,1.2,0.,1.2
1980-11-14 03:10:35.800 ,1,0,0.,1.2,0.,1.2,0.,1.2,0.,1.2
1980-11-14 03:10:37.000 ,1,0,0.,1.2,0.,1.2,0.,1.2,0.,1.2
1980-11-14 03:10:38.200 ,1,0,0.,1.2,0.,1.2,0.,1.2,0.,1.2
1980-11-14 03:10:39.400 ,1,0,1.,1.2,0.,1.2,0.,1.2,0.,1.2
1980-11-14 03:10:40.600 ,1,0,0.,1.2,0.,1.2,0.,1.2,1.,1.2
1980-11-14 03:10:41.800 ,1,0,1.,1.2,0.,1.2,0.,1.2,0.,1.2
1980-11-14 03:10:43.000 ,1,0,0.,1.2,0.,1.2,0.,1.2,0.,1.2
1980-11-14 03:10:44.200 ,1,0,1.,1.2,0.,1.2,0.,1.2,0.,1.2
1980-11-14 03:10:45.400 ,1,0,1.,1.2,0.,1.2,0.,1.2,0.,1.2
1980-11-14 03:10:46.600 ,1,0,1.,1.2,0.,1.2,0.,1.2,0.,1.2
1980-11-14 03:10:47.800 ,1,0,0.,1.2,0.,1.2,0.,1.2,0.,1.2
1980-11-14 03:10:49.000 ,1,0,1.,1.2,0.,1.2,0.,1.2,0.,1.2